Weather History for Tacoma, WA

Change the Weather History Date:

Wednesday, January 19, 2011

  Actual Average Record
Temperature  
Mean Temperature 38 °F -  
Max Temperature 45 °F 45 °F 64 °F (2005)
Min Temperature 29 °F 33 °F 20 °F (1984)
Degree Days  
Heating Degree Days 27    
Moisture  
Dew Point 33 °F    
Average Humidity 88    
Maximum Humidity 100    
Minimum Humidity 60    
Precipitation  
Precipitation 0.00 in - - ()
Sea Level Pressure  
Sea Level Pressure 30.44 in    
Wind  
Wind Speed 2 mph (North)    
Max Wind Speed 8 mph    
Max Gust Speed -    
Visibility 9 miles    
Events      
Averages and records for this station are not official NWS values.
T = Trace of Precipitation, MM = Missing Value Source: NWS Daily Summary

Daily Weather History Graph

Daily Weather History Graph

Search for Another Location

Airport:

Trip Planner

Search our weather history database for the weather conditions in past years. The results will help you decide how hot, cold, wet, or windy it might be!

Date:

Astronomy

Jan. 19, 2011 Rise Set
Actual Time 7:48 AM PST 4:52 PM PST
Civil Twilight 7:14 AM PST 5:26 PM PST
Nautical Twilight 6:37 AM PST 6:04 PM PST
Astronomical Twilight 6:01 AM PST 6:40 PM PST
Moon 5:10 PM PST (1/19) 7:31 AM PST (1/19)
Length of Visible Light 10h 11m
Length of Day
9h 03m
Full, 100% of the Moon is Illuminated
Jan 19
Full
Jan 19
Full
Jan 26
Last Quarter
Feb 2
New
Feb 10
First Quarter

Hourly Weather History & Observations

Time (PST) Temp. Windchill Dew Point Humidity Pressure Visibility Wind Dir Wind Speed Gust Speed Precip Events Conditions
12:55 AM 37.8 °F 31.8 °F 33.1 °F 83% 30.31 in 10.0 mi NNE 8.1 mph - N/A   Overcast
1:11 AM 37.4 °F 33.8 °F 32.0 °F 81% 30.32 in 10.0 mi North 4.6 mph - N/A   Scattered Clouds
1:28 AM 37.4 °F - 32.0 °F 81% 30.34 in 10.0 mi Calm Calm - N/A   Mostly Cloudy
1:55 AM 36.7 °F - 32.9 °F 86% 30.35 in 10.0 mi Calm Calm - N/A   Overcast
2:41 AM 35.6 °F 32.8 °F 32.0 °F 87% 30.37 in 10.0 mi East 3.5 mph - N/A   Mostly Cloudy
2:55 AM 33.3 °F - 32.0 °F 95% 30.38 in 10.0 mi Calm Calm - N/A   Overcast
3:37 AM 33.8 °F - 33.8 °F 100% 30.38 in 10.0 mi Calm Calm - N/A   Overcast
3:44 AM 33.8 °F - 33.8 °F 100% 30.38 in 10.0 mi Calm Calm - N/A   Overcast
3:48 AM 33.8 °F 30.8 °F 33.8 °F 100% 30.38 in 10.0 mi WNW 3.5 mph - N/A   Overcast
3:55 AM 34.9 °F 32.0 °F 33.8 °F 96% 30.39 in 10.0 mi West 3.5 mph - N/A   Overcast
4:55 AM 34.9 °F - 33.6 °F 95% 30.38 in 10.0 mi Calm Calm - N/A   Overcast
4:56 AM 35.6 °F 32.8 °F 33.8 °F 93% 30.38 in 10.0 mi South 3.5 mph - N/A   Overcast
5:04 AM 35.6 °F - 33.8 °F 93% 30.39 in 10.0 mi Calm Calm - N/A   Overcast
5:12 AM 35.6 °F - 33.8 °F 93% 30.40 in 10.0 mi Calm Calm - N/A   Overcast
5:55 AM 35.2 °F - 34.3 °F 97% 30.42 in 10.0 mi Calm Calm - N/A   Overcast
6:55 AM 34.7 °F - 33.6 °F 96% 30.44 in 10.0 mi Calm Calm - N/A   Overcast
7:55 AM 32.0 °F - 31.3 °F 97% 30.45 in 10.0 mi Calm Calm - N/A   Mostly Cloudy
8:12 AM 32.0 °F - 32.0 °F 100% 30.45 in 2.5 mi Calm Calm - N/A   Mostly Cloudy
8:14 AM 32.0 °F - 32.0 °F 100% 30.45 in 2.0 mi Calm Calm - N/A   Mostly Cloudy
8:17 AM 32.0 °F - 32.0 °F 100% 30.46 in 2.5 mi Calm Calm - N/A   Scattered Clouds
8:18 AM 32.0 °F - 32.0 °F 100% 30.46 in 3.0 mi Calm Calm - N/A   Scattered Clouds
8:55 AM 33.3 °F - 32.7 °F 98% 30.46 in 10.0 mi Calm Calm - N/A   Clear
9:55 AM 40.5 °F - 35.6 °F 83% 30.48 in 10.0 mi Calm Calm - N/A   Clear
10:55 AM 42.6 °F 39.9 °F 34.3 °F 73% 30.49 in 10.0 mi North 4.6 mph - N/A   Partly Cloudy
11:55 AM 43.5 °F - 34.2 °F 70% 30.49 in 10.0 mi Calm Calm - N/A   Clear
12:55 PM 44.1 °F 41.5 °F 32.2 °F 63% 30.50 in 10.0 mi NW 4.6 mph - N/A   Partly Cloudy
1:55 PM 45.7 °F 43.4 °F 32.4 °F 60% 30.51 in 10.0 mi NNW 4.6 mph - N/A   Clear
2:55 PM 45.5 °F 43.2 °F 32.5 °F 61% 30.51 in 10.0 mi ENE 4.6 mph - N/A   Clear
3:55 PM 44.6 °F - 32.7 °F 63% 30.51 in 10.0 mi Calm Calm - N/A   Clear
4:55 PM 41.2 °F - 32.2 °F 70% 30.51 in 10.0 mi Calm Calm - N/A   Clear
5:55 PM 36.5 °F - 31.6 °F 83% 30.50 in 10.0 mi Calm Calm - N/A   Clear
6:55 PM 36.3 °F - 32.0 °F 84% 30.51 in 10.0 mi Calm Calm - N/A   Overcast
7:55 PM 34.2 °F - 32.4 °F 93% 30.51 in 10.0 mi Calm Calm - N/A   Overcast
8:55 PM 32.7 °F - 31.6 °F 96% 30.52 in 10.0 mi Calm Calm - N/A   Overcast
9:55 PM 33.3 °F - 32.0 °F 95% 30.51 in 10.0 mi Calm Calm - N/A   Scattered Clouds
10:55 PM 31.6 °F - 30.6 °F 96% 30.50 in 10.0 mi Calm Calm - N/A   Clear
11:55 PM 29.7 °F - 28.6 °F 96% 30.48 in 10.0 mi Calm Calm - N/A   Clear